SPOT 7

Last updated on Sat Nov 01 2025 00:02:30 GMT+0000 (Coordinated Universal Time)

1 40053U 14034A 25304.68204734 .00000777 00000+0 16900-3 0 9991 2 40053 98.0962 7.7166 0001167 102.6723 257.4608 14.60650280603778
UTC large
Height (km)
Speed (km/s)
/
Latitude / Longitude
Inclination (degrees)
Orbital Period (minutes)
Azimuth
Elevation
Range (km)
Doppler Factor

Next 0 passes for location: London (51.5072 / 0.1276)

Sorry there are no passes over London.